1st Responders/1st Detectors/Storm Spotters Weather Summary for Harrison County, KY

Forecast Maps


Reg. NEXRAD Animation


National Fire Danger: Day 1 & 2 Map

Current NWS Watch/Warnings

SPC Convective Day 1 Outlook


Day 2 Outlook

(Click images to enlarge|Page will refresh every 5 minutes)
UK Ag. Weather Center Desktop Severe Weather Service[HERE]
Harrison County, KY Hazardous Weather Outlook Webcast
(9 AM to 9 PM Mon-Fri)
[Fast]
[Dial-up]


UKAWC 1st Detectors/1st Responders Precision Weather Forecast For HARRISON County, Kentucky
(based on the NWS County Digital Forecast)

ISSUED AT 20:00 UTC ON FRIDAY NOV 22 2019
DAY FRIDAY
EDT 3HR 5P 6P 7P
MAX/MIN -- -- 47°
TEMP 45° 43° 40°
SKY COVER 49% 46% 43%
Clouds
DEW PT 36° 34° 32°
RH 70% 73% 75%
POP 12HR -- -- --
RAIN/SNOW (liq.equ) -- -- --
SNOWFALL -- -- --
WIND SPEED(MPH) 7 6 5
WIND Gust(MPH) 10 9 7
WIND DIR N N N
DEW -- -- Frost
HeatIndex 41 39 36
Snow -- -- --
Rain -- -- --
WIND CHILL 41° 39° 37°
SPRAY COND
DRY COND
LIVESTOCK COLDSTRESS



DAY SATURDAY SUNDAY MONDAY TUESDAY WEDNESDAY THURSDAY
EDT 6HR 8P 9P 10P 11P MIDN 1A 2A 3A 4A 5A 6A 7A 8A 9A 10A 11A NOON 1P 2P 3P 4P 5P 6P 7P 8P 9P 10P 11P MIDN 1A 2A 3A 4A 5A 8A 11A 2P 5P 8P 2A 8A 2P 8P 2A 8A 2P 8P 2A 8A 2P 8P 2A 8A 2P 8P
MAX/MIN -- -- -- -- -- -- -- -- -- -- -- -- 34° -- -- -- -- -- -- -- -- -- -- 43° -- -- -- -- -- -- -- -- -- -- 31° -- -- 47° -- -- 31° 54° -- -- 38° 58° -- -- 38° 50° -- -- 31° 47° --
TEMP 38° 38° 36° 36° 36° 34° 34° 34° 34° 34° 34° 34° 36° 36° 38° 40° 40° 41° 43° 43° 43° 43° 43° 41° 40° 38° 38° 36° 36° 36° 34° 34° 34° 32° 31° 38° 43° 45° 40° 36° 34° 49° 45° 41° 40° 52° 52° 49° 40° 47° 43° 34° 31° 45° 45°
SKY COVER 43% 45% 47% 49% 54% 59% 64% 68% 72% 76% 81% 87% 92% 94% 97% 99% 99% 100% 100% 99% 98% 97% 96% 95% 94% 94% 93% 93% 92% 91% 91% 80% 69% 58% 40% 56% 41% 34% 32% 53% 51% 22% 32% 52% 56% 72% 73% 80% 66% 44% 44% 54% 61% 64% 82%
Clouds
DEW PT 32° 31° 31° 31° 31° 31° 31° 31° 31° 31° 31° 31° 31° 32° 36° 38° 38° 40° 40° 40° 40° 40° 38° 38° 36° 36° 36° 34° 34° 34° 34° 32° 31° 31° 31° 32° 34° 34° 34° 34° 34° 40° 38° 38° 38° 45° 45° 45° 38° 34° 34° 34° 31° 32° 36°
RH 78% 78% 82% 81% 81% 84% 84% 88% 89% 88% 89% 88% 85% 85% 88% 92% 92% 92% 88% 88% 85% 85% 85% 85% 88% 89% 92% 92% 92% 92% 96% 96% 92% 95% 99% 82% 69% 62% 75% 92% 99% 68% 76% 89% 95% 73% 77% 88% 88% 60% 72% 100% 99% 62% 73%
POP 12HR 89% -- -- -- -- -- -- -- -- -- -- -- 22% -- -- -- -- -- -- -- -- -- -- -- 85% -- -- -- -- -- -- -- -- -- 30% -- -- -- 0% -- 0% -- 1% -- 11% -- 30% -- 48% -- 24% -- 14% -- 27%
RAIN/SNOW (liq.equ) 0.00in -- -- -- -- -- 0.00in -- -- -- -- -- 0.00in -- -- -- -- -- 0.12in -- -- -- -- -- 0.16in -- -- -- -- -- 0.02in -- -- -- 0.00in -- 0.00in -- 0.00in 0.00in 0.00in -- -- -- -- -- -- -- -- -- -- -- -- -- --
SNOWFALL 0in -- -- -- -- -- 0in -- -- -- -- -- 0in -- -- -- -- -- 0in -- -- -- -- -- 0in -- -- -- -- -- 0in -- -- -- 0in -- 0in -- 0in 0in 0in -- -- -- -- -- -- -- -- -- -- -- -- -- --
WIND SPEED(MPH) 5 5 5 5 5 5 5 5 5 5 5 6 6 6 6 6 6 6 6 6 7 7 7 7 7 7 7 7 7 8 7 7 7 7 7 8 8 7 6 5 5 9 6 6 5 9 9 9 7 9 5 1 1 6 2
WIND DIR NE NE NE NE NE E E E E E E E E E E E E NE NE NE N N N NW NW NW NW W W W W W W W W SW W W SW SW SW SW SW SW S S S S W W W W N SW E
HeatIndex 35 34 33 32 32 31 31 29 29 29 29 28 31 32 34 35 37 38 39 40 40 40 38 36 34 34 32 30 29 29 28 27 27 26 24 31 37 45 37 32 29 49 45 38 36 52 52 49 35 47 40 34 31 41 43
Snow -- -- -- -- -- -- -- -- -- Slight Chance Slight Chance Slight Chance Chance -- -- -- -- -- -- -- -- -- -- -- -- -- -- -- Chance Chance -- -- -- -- -- -- -- -- -- -- -- -- -- -- -- -- -- -- -- -- -- -- Slight Chance -- --
Rain -- -- -- -- -- -- -- -- -- -- -- -- Chance Chance Chance Likely Likely Likely Definite Definite Definite Definite Likely Chance Chance Chance Chance Chance Chance Chance -- -- -- -- -- -- -- -- -- -- -- -- -- -- Slight Chance Chance Chance Chance Slight Chance -- -- -- Slight Chance Chance Chance
WIND CHILL 35° 35° 32° 32° 32° 30° 30° 30° 30° 30° 30° 29° 31° 31° 34° 36° 36° 37° 39° 39° 39° 39° 39° 36° 35° 33° 33° 30° 30° 30° 28° 28° 28° 26° 25° 32° 38° 41° 36° 32° 30° -- 42° 37° 37° -- -- -- 35° -- 40° -- -- 42° --
SPRAY COND
DRY COND
LIVESTOCK COLDSTRESS

Click on individual weather variable above in left-hand column (ie., TEMP, RH, QPF 12HR) to view state forecast maps






NWS 48 Hr. Forecast Maps,

Regional Hourly Observations For HARRISON County, Kentucky
Issued at 400 PM EST FRI NOV 22 2019
NORTHEAST KENTUCKY
  
CITY           SKY/WX    TMP DP  RH WIND       PRES   REMARKS
LEXINGTON      CLOUDY    45  36  70 NE7       30.09R                  
COVINGTON      PTSUNNY   45  32  60 N8        30.09R                  
FRANKFORT      CLOUDY    45  36  70 N5        30.09R                  


Current NOWCAST not available:
Nowcasts are not issued routinely during fair weather. Only when
precipitation or other significant weather is occuring in this county will these
forecasts be issued. Currently, there is no short term forecast in effect.


Fire Weather Forecast For HARRISON County, KY
Provided by the National Weather Service:

Issued at: Fri Nov 22 16:05:01 EST 2019


                      Tonight      Sat          Sat Night    Sun          

CLOUD COVER           Mcldy        Cloudy       Mcldy        Pcldy        
PRECIP TYPE           Snow/Rain    Rain         Rain         None         
CHANCE PRECIP (%)     0            80           30           0            
TEMP (24H TREND)      33 (-12)     48 (-1)      31           48           
RH % (24H TREND)      88 (-11)     80 (+8)      98           59           
20FTWND-VAL/AM(MPH)                E  5                      SW  6        
20FTWND-RDG/PM(MPH)   Lgt/Var      N  5         NW  6        SW  7        
PRECIP AMOUNT         0.00         0.24         0.01         0.00         
MIXING HGT(FT-AGL/MSL)             1248                      2894         
TRANSPORT WND (MPH)                NW 12                     W 15         
VENT RATE (KT-FT)                  14976                     37639        
DISPERSION                         Poor                      Marginal     
DSI                   STBL         STBL         STBL         STBL         
LAL                   1            1            1            1            
HAINES INDEX          4            3            2            3            
ADI EARLY             4 VERY POOR  9 POOR       13 GEN POOR  29 FAIR      
ADI LATE              9 POOR       14 GEN POOR  11 POOR      44 GEN GOOD  
MAX LVORI EARLY       5            6            5            6            
MAX LVORI LATE        5            6            6            3            

REMARKS...ADI IS ATMOSPHERIC DISPERSION INDEX BY LAVDAS.        
LVORI IS LOW VISIBILITY OCCURRENCE RISK INDEX.

.MONDAY...Partly cloudy. Lows in the lower 30s. Highs in the mid
50s. Southwest winds around 5 mph. 
.TUESDAY...Partly cloudy. A 50 percent chance of rain. Lows in
the upper 30s. Highs in the upper 50s. South winds 5 to 10 mph. 
.WEDNESDAY...Mostly cloudy. A 50 percent chance of rain. Lows in
the lower 40s. Highs in the mid 50s. Northwest winds 5 to 10 mph.
.THURSDAY...Mostly cloudy. Lows in the mid 30s. Highs in the
lower 50s. Northeast winds around 5 mph. 
.FRIDAY...Mostly cloudy with a 40 percent chance of rain. Lows in
the mid 30s. Highs in the lower 50s. South winds up to 5 mph. 

SPC's Fire Weather Web Tool (Excellent!), SPC's Fire Weather Outlooks, NWS Fire Weather WEB, Fire Danger Class Map,
Keetch-Byram Drought Index, ROMAN Web, Haines Index ,
WFAS's 10-hr Dead Fuel Moist., WFAS's 100-hr Dead Fuel Moist., Probablity of Ignition, Visual blackness Map, Palmer Drought Index, HPC's Rainfall Forecast Maps


Hazardous Weather Outlook For HARRISON County, Kentucky
333 PM EST Fri Nov 22 2019 /233 PM CST Fri Nov 22 2019/

 DAY ONE  Tonight

Rain may briefly mix with snow late tonight or early Saturday 
morning in southern Indiana and north central Kentucky. No 
accumulation is expected. 

 DAYS TWO THROUGH SEVEN  Saturday through Thursday

No hazardous weather is expected at this time. 

 SPOTTER INFORMATION STATEMENT  

Spotter activation is not anticipated at this time. 

Latest HARRISON County, Kentucky Watches, Warnings and Advisories.
Additional Drought Info.: UKAWC Drought Page, Kentucky Drought Watch


7-Day Forecast For HARRISON County, KY

TONIGHT
Partly cloudy in the evening, then mostly cloudy with a 20 percent chance of light snow after midnight. Lows in the mid 30s. Northeast winds around 5 mph.

SATURDAY
Rain possibly mixed with snow. No snow accumulation. Highs in the mid 40s. Northeast winds 5 to 10 mph. Chance of precipitation 90 percent.

SATURDAY NIGHT
Cloudy with a 50 percent chance of rain possibly mixed with snow and. Lows in the lower 30s. West winds 5 to 10 mph.

SUNDAY
Partly cloudy. Highs in the upper 40s. Southwest winds 5 to 10 mph.

SUNDAY NIGHT
Partly cloudy. Lows in the lower 30s. Southwest winds 5 to 10 mph.

MONDAY
Partly cloudy. Highs in the mid 50s.

MONDAY NIGHT
Partly cloudy. Lows in the upper 30s.

TUESDAY
Partly cloudy with a 50 percent chance of rain. Highs in the upper 50s.

TUESDAY NIGHT
Rain likely. Lows in the lower 40s. Chance of rain 60 percent.

WEDNESDAY
Partly cloudy with a 50 percent chance of rain. Highs in the lower 50s.

WEDNESDAY NIGHT
Partly cloudy with a 20 percent chance of rain. Lows in the mid 30s.

THANKSGIVING DAY
Partly cloudy with a 20 percent chance of rain possibly mixed with snow. Highs around 50.

THURSDAY NIGHT
Mostly cloudy with a 30 percent chance of rain possibly mixed with snow. Lows in the mid 30s.

FRIDAY
Mostly cloudy with a 40 percent chance of rain possibly mixed with snow. Highs around 50.

Ag Weather Center, Department of Biosystems & Agricultural Engineering, University of Kentucky